[TLELIST] Archives

 

[list_settings.list_name] Current TLEs

July 19th 2011 PST

HST 1 20580U 90037B 11198.23054475 .00000560 00000-0 29656-4 0 8008 2 20580 028.4688 180.1909 0003489 085.2272 274.8727 15.01422310964174 ISS (ZARYA) 1 25544U 98067A 11200.36637016 .00009056 00000-0 11588-3 0 7406 2 25544 051.6413 358.7195 0011326 343.8533 083.4325 15.59981413725939 CXO 1 25867U 99040B 11200.75000000 -.00000907 00000-0 00000+0 0 6269 2 25867 069.6159 029.4373 8640057 276.8774 002.8981 00.37805526 7893 ____________________________________________________________________ These 2-Line ...Continue Reading

[list_settings.list_name] Current TLEs

July 18th 2011 PST

HST 1 20580U 90037B 11198.23054475 .00000560 00000-0 29656-4 0 8008 2 20580 028.4688 180.1909 0003489 085.2272 274.8727 15.01422310964174 ISS (ZARYA) 1 25544U 98067A 11199.34195200 .00009076 00000-0 11620-3 0 7347 2 25544 051.6411 003.8715 0011229 339.7391 090.6868 15.59961879725779 CXO 1 25867U 99040B 11200.75000000 -.00000907 00000-0 00000+0 0 6269 2 25867 069.6159 029.4373 8640057 276.8774 002.8981 00.37805526 7893 ____________________________________________________________________ These 2-Line ...Continue Reading

[list_settings.list_name] Current TLEs

July 17th 2011 PST

HST 1 20580U 90037B 11198.23054475 .00000560 00000-0 29656-4 0 8008 2 20580 028.4688 180.1909 0003489 085.2272 274.8727 15.01422310964174 ISS (ZARYA) 1 25544U 98067A 11198.23778935 .00008765 00000-0 11255-3 0 7276 2 25544 051.6411 009.4248 0011066 335.3724 010.1383 15.59939880725599 CXO 1 25867U 99040B 11198.08333333 -.00000905 00000-0 00000+0 0 6256 2 25867 069.5956 029.6164 8639012 276.8529 359.9442 00.37801769 7886 ____________________________________________________________________ These 2-Line ...Continue Reading

[list_settings.list_name] Current TLEs

July 16th 2011 PST

HST 1 20580U 90037B 11197.23345419 .00000577 00000-0 30933-4 0 7993 2 20580 028.4692 186.7059 0003467 075.0348 285.0649 15.01421676964029 ISS (ZARYA) 1 25544U 98067A 11197.35643171 .00008269 00000-0 10662-3 0 7215 2 25544 051.6413 013.8569 0011080 331.7874 100.9296 15.59921171725469 CXO 1 25867U 99040B 11198.08333333 -.00000905 00000-0 00000+0 0 6256 2 25867 069.5956 029.6164 8639012 276.8529 359.9442 00.37801769 7886 ____________________________________________________________________ These 2-Line ...Continue Reading

[list_settings.list_name] Current TLEs

July 15th 2011 PST

HST 1 20580U 90037B 11196.23636361 .00000576 00000-0 30856-4 0 7983 2 20580 028.4697 193.2213 0003461 064.0767 296.0245 15.01420913963875 ISS (ZARYA) 1 25544U 98067A 11196.32953525 .00008611 00000-0 11084-3 0 7162 2 25544 051.6411 019.0192 0010789 327.5827 094.5719 15.59904254725307 CXO 1 25867U 99040B 11198.08333333 -.00000905 00000-0 00000+0 0 6256 2 25867 069.5956 029.6164 8639012 276.8529 359.9442 00.37801769 7886 ____________________________________________________________________ These 2-Line ...Continue Reading

[list_settings.list_name] Current TLEs

July 14th 2011 PST

HST 1 20580U 90037B 11193.24508359 .00000531 00000-0 27481-4 0 7976 2 20580 028.4704 212.7631 0003297 032.0114 328.0702 15.01418305963420 ISS (ZARYA) 1 25544U 98067A 11195.50193943 .00009576 00000-0 12258-3 0 7111 2 25544 051.6409 023.1808 0010780 324.4593 127.1420 15.59893409725177 CXO 1 25867U 99040B 11195.45833333 -.00001037 00000-0 00000+0 0 6245 2 25867 069.5789 029.7664 8637449 276.8351 002.6740 00.37800731 7871 ____________________________________________________________________ These 2-Line ...Continue Reading

[list_settings.list_name] Current TLEs

July 13th 2011 PST

HST 1 20580U 90037B 11193.24508359 .00000531 00000-0 27481-4 0 7976 2 20580 028.4704 212.7631 0003297 032.0114 328.0702 15.01418305963420 ISS (ZARYA) 1 25544U 98067A 11194.40856707 .00009615 00000-0 12315-3 0 7043 2 25544 051.6408 028.6811 0010808 319.5743 108.0211 15.59871634725007 CXO 1 25867U 99040B 11195.45833333 -.00001037 00000-0 00000+0 0 6245 2 25867 069.5789 029.7664 8637449 276.8351 002.6740 00.37800731 7871 ____________________________________________________________________ These 2-Line ...Continue Reading

[list_settings.list_name] Current TLEs

July 12th 2011 PST

HST 1 20580U 90037B 11193.24508359 .00000531 00000-0 27481-4 0 7976 2 20580 028.4704 212.7631 0003297 032.0114 328.0702 15.01418305963420 ISS (ZARYA) 1 25544U 98067A 11193.07651572 .00016318 00000-0 20442-3 0 6977 2 25544 051.6420 035.3805 0011242 312.7084 189.7938 15.59862071724797 CXO 1 25867U 99040B 11192.79166667 -.00001155 00000-0 00000+0 0 6238 2 25867 069.5608 029.9369 8635559 276.8078 359.7418 00.37805193 7865 ____________________________________________________________________ These 2-Line ...Continue Reading

[list_settings.list_name] Current TLEs

July 11th 2011 PST

HST 1 20580U 90037B 11192.24798881 .00000516 00000-0 26327-4 0 7966 2 20580 028.4705 219.2771 0003259 020.3805 339.6919 15.01417416963276 ISS (ZARYA) 1 25544U 98067A 11192.34505787 .00005625 00000-0 74898-4 0 6921 2 25544 051.6417 039.0552 0010475 313.3618 038.9341 15.59818358724679 CXO 1 25867U 99040B 11192.79166667 -.00001155 00000-0 00000+0 0 6238 2 25867 069.5608 029.9369 8635559 276.8078 359.7418 00.37805193 7865 ____________________________________________________________________ These 2-Line ...Continue Reading

[list_settings.list_name] Current TLEs

July 10th 2011 PST

HST 1 20580U 90037B 11190.25379641 .00000306 00000-0 10391-4 0 7954 2 20580 028.4699 232.2972 0003065 359.0912 000.9668 15.01415561962976 ISS (ZARYA) 1 25544U 98067A 11191.38511574 .00004839 00000-0 65360-4 0 6868 2 25544 051.6419 043.8801 0010704 310.0194 048.2846 15.59802805724527 CXO 1 25867U 99040B 11192.79166667 -.00001155 00000-0 00000+0 0 6238 2 25867 069.5608 029.9369 8635559 276.8078 359.7418 00.37805193 7865 ____________________________________________________________________ These 2-Line ...Continue Reading
  • This mailing list is a public mailing list - anyone may join or leave, at any time.
  • This mailing list is announce-only.

International Space Station (ISS) / Hubble Space Telescope (HST) / Chandra X-Ray Observatory Orbital Data via EMAIL

Privacy Policy:

Private list